User: anonymous   Login
Location: Unspecified
(0.0000°N, 0.0000°E)
Time: 10:39:40
(UTC+01:00)
Language:

Cosmos 2251 - Orbit

View from above orbital plane
View from above orbital plane
View from above satellite
View from above satellite

Ground track
Ground track

The orbit data is extracted from the following two-line orbital elements,

1 22675U 93036A   14304.10224708  .00000132  00000-0  58379-4 0  3939
2 22675 074.0389 168.1363 0024662 162.8972 308.1534 14.32356616116568
Epoch (UTC): 31 October 2014 02:27:14
Eccentricity: 0.0024662
inclination: 74.0389°
perigee height: 766 km
apogee height: 801 km
right ascension of ascending node: 168.1363°
argument of perigee: 162.8972°
revolutions per day: 14.32356616
mean anomaly at epoch: 308.1534°
orbit number at epoch: 11656

The dashed part of the orbit path shows where the satellite is in the earth's shadow,  

DLR